GLOBALSTAR M036 (25623 NORAD) Tracking and Keplerian Element Data

This shows tracking and keplerian element data for the satellite.

Feedback or suggestion? Click here.




ElementValue
Catalog25623
NameGLOBALSTAR M036
Epoch Orbit16315
Epoch Day34.87372947
Epoch Year2025
RAAN231.7062
Inclination51.9935
Eccentricity0.0011442
Argument of Perigee152.8965
Mean Anonmoly313.0826
Mean Motion11.8659175
Decay Rate-7E-07
L11 25623U 99004C 25034.87372947 -.00000070 00000+0 18498-3 0 9991
L22 25623 51.9935 231.7062 0011442 152.8965 313.0826 11.86591750163153



Live tracking and technical data element details for GLOBALSTAR M036 (NORAD 25623). GLOBALSTAR M036 can be tracked NOW for your location showing map with azimuth and elevation plus other details from your city location.







IsCatalogInMostPopularTable: catalog: 25623, numindb: 356
Update: records affected: 1



GetName: 25623 GLOBALSTAR M036

Hit Count: updated at: Sat, 24 May 2025 16:18:59 GMT